Wahpeton, MN

12:01 AM CST on January 24, 2018 (GMT -0600)
Stern

Weather History for KBWP - January, 2014

Change the Weather History Date:

Saturday, January 18, 2014

  Actual Average (KFFM) Record (KFFM)
Temperature  
Mean Temperature 21 °F -  
Max Temperature 32 °F 16 °F 38 °F (1988)
Min Temperature 10 °F -4 °F -32 °F (1977)
Degree Days  
Heating Degree Days 44    
Moisture  
Dew Point 15 °F    
Average Humidity 83    
Maximum Humidity 93    
Minimum Humidity 73    
Precipitation  
Precipitation 0.00 in - - ()
Sea Level Pressure  
Sea Level Pressure 29.75 in    
Wind  
Wind Speed 12 mph (NW)    
Max Wind Speed 25 mph    
Max Gust Speed 29 mph    
Visibility 9 miles    
Events      
Averages and records for this station are not official NWS values.
T = Trace of Precipitation, MM = Missing Value Source: NWS Daily Summary

Daily Weather History Graph

Daily Weather History Graph

Search for Another Location

Airport or City:

Trip Planner

Search our weather history database for the weather conditions in past years. The results will help you decide how hot, cold, wet, or windy it might be!

Date:

Astronomy

Jan. 18, 2014 Rise Set
Actual Time 8:03 AM CST 5:11 PM CST
Civil Twilight 7:29 AM CST 5:44 PM CST
Nautical Twilight 6:52 AM CST 6:21 PM CST
Astronomical Twilight 6:16 AM CST 6:57 PM CST
Moon 8:06 PM CST (1/18) 8:53 AM CST (1/18)
Length of Visible Light 10h 14m
Length of Day
9h 08m
Waning Gibbous, 94% of the Moon is Illuminated
Jan 18
Waning Gibbous
Jan 23
Last Quarter
Jan 30
New
Feb 6
First Quarter
Feb 14
Full

Hourly Weather History & Observations

Time (CST) Temp. Windchill Dew Point Humidity Pressure Visibility Wind Dir Wind Speed Gust Speed Precip Events Conditions
12:15 AM 19.4 °F 7.2 °F 17.6 °F 93% 29.48 in 2.5 mi SSE 11.5 mph - N/A   Overcast
12:35 AM 19.4 °F 6.0 °F 17.6 °F 93% 29.46 in 1.5 mi SSE 13.8 mph - N/A   Overcast
12:55 AM 21.2 °F 7.8 °F 19.4 °F 93% 29.44 in 1.5 mi South 15.0 mph - N/A   Overcast
1:15 AM 21.2 °F 8.3 °F 19.4 °F 93% 29.43 in 4.0 mi South 13.8 mph - N/A   Overcast
1:35 AM 23.0 °F 13.1 °F 21.2 °F 93% 29.42 in 1.2 mi South 9.2 mph - N/A   Overcast
1:55 AM 24.8 °F 17.9 °F 23.0 °F 93% 29.41 in 1.5 mi South 5.8 mph - N/A   Overcast
2:15 AM 28.4 °F 20.4 °F 26.6 °F 93% 29.41 in 1.5 mi WNW 8.1 mph - N/A   Overcast
2:35 AM 32.0 °F 22.1 °F 30.2 °F 93% 29.40 in 5.0 mi NW 13.8 mph - N/A   Overcast
2:55 AM 32.0 °F 21.2 °F 28.4 °F 87% 29.41 in 1.8 mi NNW 16.1 mph 21.9 mph N/A   Overcast
3:15 AM 30.2 °F 20.8 °F 28.4 °F 93% 29.41 in 2.0 mi NNW 11.5 mph - N/A   Overcast
3:35 AM 28.4 °F 19.7 °F 26.6 °F 93% 29.41 in 3.0 mi NNE 9.2 mph - N/A   Overcast
3:55 AM 26.6 °F 21.2 °F 23.0 °F 86% 29.41 in 7.0 mi North 4.6 mph - N/A   Overcast
4:15 AM 26.6 °F 18.2 °F 23.0 °F 86% 29.42 in 10.0 mi NE 8.1 mph - N/A   Overcast
4:35 AM 23.0 °F - 19.4 °F 86% 29.44 in 10.0 mi Calm Calm - N/A   Overcast
4:55 AM 21.2 °F 8.9 °F 17.6 °F 86% 29.46 in 10.0 mi ENE 12.7 mph - N/A   Overcast
5:15 AM 19.4 °F 6.6 °F 14.0 °F 80% 29.50 in 10.0 mi ENE 12.7 mph - N/A   Overcast
5:35 AM 17.6 °F 3.2 °F 12.2 °F 79% 29.54 in 10.0 mi NE 15.0 mph 19.6 mph N/A   Overcast
5:55 AM 17.6 °F 2.7 °F 12.2 °F 79% 29.57 in 10.0 mi NE 16.1 mph 20.7 mph N/A   Overcast
6:15 AM 15.8 °F 2.7 °F 10.4 °F 79% 29.60 in 10.0 mi NNE 11.5 mph - N/A   Overcast
6:35 AM 14.0 °F -1.4 °F 10.4 °F 86% 29.64 in 10.0 mi NNE 15.0 mph - N/A   Overcast
6:55 AM 14.0 °F -0.8 °F 8.6 °F 79% 29.68 in 10.0 mi North 13.8 mph - N/A   Scattered Clouds
7:15 AM 14.0 °F -2.0 °F 8.6 °F 79% 29.71 in 10.0 mi North 16.1 mph - N/A   Mostly Cloudy
7:35 AM 12.2 °F -4.8 °F 8.6 °F 85% 29.74 in 10.0 mi North 17.3 mph 25.3 mph N/A   Mostly Cloudy
7:55 AM 12.2 °F -4.3 °F 6.8 °F 79% 29.76 in 10.0 mi North 16.1 mph 23.0 mph N/A   Scattered Clouds
8:15 AM 10.4 °F -7.2 °F 5.0 °F 79% 29.79 in 10.0 mi North 17.3 mph - N/A   Clear
8:35 AM 10.4 °F -6.6 °F 5.0 °F 79% 29.81 in 10.0 mi North 16.1 mph - N/A   Clear
8:55 AM 10.4 °F -6.0 °F 5.0 °F 79% 29.84 in 10.0 mi North 15.0 mph - N/A   Clear
9:15 AM 12.2 °F -4.3 °F 5.0 °F 73% 29.87 in 10.0 mi North 16.1 mph 20.7 mph N/A   Clear
9:35 AM 12.2 °F -3.7 °F 5.0 °F 73% 29.90 in 10.0 mi North 15.0 mph - N/A   Clear
9:55 AM 12.2 °F -2.5 °F 5.0 °F 73% 29.91 in 10.0 mi North 12.7 mph - N/A   Clear
10:15 AM 12.2 °F -1.8 °F 5.0 °F 73% 29.94 in 10.0 mi NNW 11.5 mph - N/A   Clear
10:35 AM 12.2 °F -4.3 °F 6.8 °F 79% 29.95 in 10.0 mi NNW 16.1 mph 20.7 mph N/A   Clear
10:55 AM 14.0 °F -0.8 °F 6.8 °F 73% 29.94 in 10.0 mi North 13.8 mph - N/A   Clear
11:15 AM 14.0 °F -0.8 °F 8.6 °F 79% 29.96 in 10.0 mi North 13.8 mph - N/A   Clear
11:35 AM 14.0 °F 2.0 °F 8.6 °F 79% 29.96 in 10.0 mi North 9.2 mph - N/A   Clear
11:55 AM 14.0 °F 0.5 °F 8.6 °F 79% 29.96 in 10.0 mi NNW 11.5 mph - N/A   Clear
12:15 PM 14.0 °F -0.2 °F 8.6 °F 79% 29.96 in 10.0 mi NNW 12.7 mph 16.1 mph N/A   Clear
12:35 PM 14.0 °F 0.5 °F 8.6 °F 79% 29.97 in 10.0 mi NNW 11.5 mph - N/A   Clear
12:55 PM 14.0 °F 0.5 °F 8.6 °F 79% 29.97 in 10.0 mi NNW 11.5 mph - N/A   Clear
1:15 PM 14.0 °F -0.2 °F 8.6 °F 79% 29.98 in 10.0 mi NNW 12.7 mph - N/A   Clear
1:35 PM 14.0 °F 0.5 °F 8.6 °F 79% 29.99 in 10.0 mi NNW 11.5 mph 18.4 mph N/A   Clear
1:55 PM 14.0 °F 0.5 °F 8.6 °F 79% 29.99 in 10.0 mi NNW 11.5 mph - N/A   Clear
2:15 PM 14.0 °F 0.5 °F 10.4 °F 86% 29.99 in 10.0 mi NW 11.5 mph - N/A   Clear
2:35 PM 15.8 °F 4.2 °F 10.4 °F 79% 29.98 in 10.0 mi NW 9.2 mph - N/A   Scattered Clouds
2:55 PM 15.8 °F 2.7 °F 10.4 °F 79% 29.98 in 10.0 mi NW 11.5 mph - N/A   Mostly Cloudy
3:15 PM 15.8 °F 4.2 °F 10.4 °F 79% 29.99 in 10.0 mi WNW 9.2 mph - N/A   Scattered Clouds
3:35 PM 17.6 °F 9.3 °F 10.4 °F 73% 29.98 in 10.0 mi WNW 5.8 mph - N/A   Mostly Cloudy
3:55 PM 17.6 °F 5.0 °F 12.2 °F 79% 29.97 in 10.0 mi WNW 11.5 mph - N/A   Overcast
4:15 PM 17.6 °F 4.3 °F 12.2 °F 79% 29.97 in 10.0 mi WNW 12.7 mph - N/A   Overcast
4:35 PM 17.6 °F 8.2 °F 12.2 °F 79% 29.97 in 10.0 mi West 6.9 mph - N/A   Overcast
4:55 PM 17.6 °F 8.2 °F 14.0 °F 86% 29.96 in 10.0 mi West 6.9 mph - N/A   Overcast
5:15 PM 17.6 °F 9.3 °F 14.0 °F 86% 29.95 in 10.0 mi WSW 5.8 mph - N/A   Overcast
5:35 PM 19.4 °F 10.4 °F 14.0 °F 80% 29.93 in 10.0 mi SSW 6.9 mph - N/A   Overcast
5:55 PM 19.4 °F 10.4 °F 14.0 °F 80% 29.91 in 10.0 mi SSW 6.9 mph - N/A   Overcast
6:15 PM 19.4 °F 10.4 °F 15.8 °F 86% 29.90 in 10.0 mi SSW 6.9 mph - N/A   Overcast
6:35 PM 19.4 °F 11.5 °F 17.6 °F 93% 29.90 in 10.0 mi SSW 5.8 mph - N/A   Overcast
6:55 PM 21.2 °F 10.9 °F 17.6 °F 86% 29.88 in 10.0 mi SSW 9.2 mph - N/A   Overcast
7:15 PM 21.2 °F 11.7 °F 17.6 °F 86% 29.86 in 10.0 mi SSW 8.1 mph - N/A   Mostly Cloudy
7:35 PM 21.2 °F 10.1 °F 19.4 °F 93% 29.84 in 10.0 mi SSW 10.4 mph - N/A   Mostly Cloudy
7:55 PM 23.0 °F 12.4 °F 19.4 °F 86% 29.82 in 10.0 mi SSW 10.4 mph - N/A   Mostly Cloudy
8:15 PM 23.0 °F 11.7 °F 19.4 °F 86% 29.79 in 10.0 mi SSW 11.5 mph - N/A   Scattered Clouds
8:35 PM 23.0 °F 12.4 °F 19.4 °F 86% 29.77 in 10.0 mi SSW 10.4 mph - N/A   Scattered Clouds
8:55 PM 23.0 °F 13.1 °F 19.4 °F 86% 29.74 in 10.0 mi South 9.2 mph - N/A   Clear
9:15 PM 23.0 °F 13.1 °F 19.4 °F 86% 29.72 in 10.0 mi SSW 9.2 mph - N/A   Clear
9:35 PM 23.0 °F 13.9 °F 19.4 °F 86% 29.71 in 10.0 mi SW 8.1 mph - N/A   Clear
9:55 PM 28.4 °F 15.8 °F 24.8 °F 86% 29.69 in 10.0 mi West 18.4 mph - N/A   Clear
10:15 PM 30.2 °F 17.1 °F 26.6 °F 86% 29.68 in 10.0 mi West 21.9 mph 28.8 mph N/A   Clear
10:35 PM 28.4 °F 14.4 °F 24.8 °F 86% 29.67 in 10.0 mi West 23.0 mph - N/A   Clear
10:55 PM 28.4 °F 16.2 °F 24.8 °F 86% 29.64 in 10.0 mi WSW 17.3 mph - N/A   Clear
11:15 PM 28.4 °F 15.8 °F 23.0 °F 80% 29.63 in 10.0 mi West 18.4 mph - N/A   Clear
11:35 PM 28.4 °F 16.6 °F 23.0 °F 80% 29.61 in 10.0 mi West 16.1 mph - N/A   Clear
11:55 PM 30.2 °F 16.2 °F 24.8 °F 80% 29.59 in 10.0 mi West 25.3 mph - N/A   Clear